Stevens Point, WI

5:32 AM CST on January 28, 2020 (GMT -0600)
Stevens Point Municipal

Weather History for KSTE - December, 2019

Change the Weather History Date:

Saturday, December 7, 2019

  Actual Average Record
Temperature  
Mean Temperature 25 °F -  
Max Temperature 32 °F 29 °F 49 °F (1988)
Min Temperature 18 °F 14 °F -23 °F (1972)
Degree Days  
Heating Degree Days 40    
Moisture  
Dew Point 20 °F    
Average Humidity 78    
Maximum Humidity 88    
Minimum Humidity 67    
Precipitation  
Precipitation 0.00 in - - ()
Sea Level Pressure  
Sea Level Pressure 30.14 in    
Wind  
Wind Speed 4 mph (South)    
Max Wind Speed 13 mph    
Max Gust Speed 18 mph    
Visibility 10 miles    
Events      
Averages and records for this station are not official NWS values.
T = Trace of Precipitation, MM = Missing Value Source: NWS Daily Summary

Daily Weather History Graph

Daily Weather History Graph

Search for Another Location

Airport or City:

Astronomy

Dec. 07, 2019 Rise Set
Actual Time 7:20 AM CST 4:18 PM CST
Civil Twilight 6:47 AM CST 4:51 PM CST
Nautical Twilight 6:10 AM CST 5:27 PM CST
Astronomical Twilight 5:35 AM CST 6:03 PM CST
Moon 2:12 PM CST (12/7) 2:18 AM CST (12/7)
Length of Visible Light 10h 03m
Length of Day
8h 57m
Waxing Gibbous, 81% of the Moon is Illuminated
Dec 7
Waxing Gibbous
Dec 11
Full
Dec 18
Last Quarter
Dec 25
New
Jan 2
First Quarter

Hourly Weather History & Observations

Time (CST) Temp. Windchill Dew Point Humidity Pressure Visibility Wind Dir Wind Speed Gust Speed Precip Events Conditions
12:15 AM 18.5 °F - 15.4 °F 88% 30.30 in 10.0 mi Calm Calm - N/A   Overcast
12:35 AM 19.4 °F - 16.2 °F 87% 30.30 in 10.0 mi Calm Calm - N/A   Overcast
12:55 AM 19.4 °F - 15.3 °F 84% 30.30 in 10.0 mi Calm Calm - N/A   Overcast
1:15 AM 19.4 °F - 15.4 °F 85% 30.30 in 10.0 mi Calm Calm - N/A   Overcast
1:35 AM 19.4 °F - 15.3 °F 84% 30.30 in 10.0 mi Calm Calm - N/A   Overcast
1:55 AM 19.9 °F - 15.4 °F 83% 30.30 in 10.0 mi Calm Calm - N/A   Overcast
2:15 AM 19.8 °F - 15.6 °F 84% 30.29 in 10.0 mi Calm Calm - N/A   Overcast
2:55 AM 20.3 °F - 15.8 °F 83% 30.28 in 10.0 mi Calm Calm - N/A   Overcast
3:15 AM 20.3 °F - 16.2 °F 84% 30.28 in 10.0 mi Calm Calm - N/A   Overcast
3:35 AM 20.7 °F - 16.3 °F 83% 30.27 in 10.0 mi Calm Calm - N/A   Overcast
3:55 AM 21.0 °F - 16.7 °F 83% 30.26 in 10.0 mi Calm Calm - N/A   Overcast
4:15 AM 21.0 °F - 17.1 °F 85% 30.26 in 10.0 mi Calm Calm - N/A   Overcast
4:35 AM 21.2 °F - 17.2 °F 85% 30.25 in 10.0 mi Calm Calm - N/A   Overcast
4:55 AM 20.8 °F - 16.5 °F 83% 30.25 in 10.0 mi Calm Calm - N/A   Overcast
5:35 AM 18.5 °F - 15.4 °F 88% 30.24 in 10.0 mi Calm Calm - N/A   Mostly Cloudy
5:55 AM 18.1 °F 12.9 °F 14.7 °F 86% 30.24 in 10.0 mi SE 3.5 mph - N/A   Scattered Clouds
6:15 AM 19.0 °F 12.3 °F 15.4 °F 86% 30.24 in 10.0 mi SE 4.6 mph - N/A   Clear
6:35 AM 19.0 °F 12.3 °F 15.3 °F 85% 30.23 in 10.0 mi SE 4.6 mph - N/A   Mostly Cloudy
6:55 AM 19.4 °F - 15.6 °F 85% 30.22 in 10.0 mi Calm Calm - N/A   Mostly Cloudy
7:55 AM 18.3 °F - 15.1 °F 87% 30.22 in 10.0 mi Calm Calm - N/A   Scattered Clouds
8:15 AM 19.4 °F - 15.8 °F 86% 30.22 in 10.0 mi Calm Calm - N/A   Mostly Cloudy
8:35 AM 20.3 °F 15.4 °F 16.2 °F 84% 30.23 in 10.0 mi South 3.5 mph - N/A   Scattered Clouds
8:55 AM 22.3 °F 16.1 °F 17.4 °F 82% 30.23 in 10.0 mi South 4.6 mph - N/A   Clear
9:15 AM 24.4 °F 16.5 °F 18.7 °F 79% 30.22 in 10.0 mi South 6.9 mph - N/A   Clear
9:35 AM 25.3 °F 16.7 °F 19.2 °F 78% 30.22 in 10.0 mi SSW 8.1 mph - N/A   Clear
9:55 AM 26.1 °F 15.6 °F 19.4 °F 76% 30.21 in 10.0 mi SSW 11.5 mph - N/A   Clear
10:15 AM 26.6 °F 16.8 °F 19.9 °F 76% 30.21 in 10.0 mi SSW 10.4 mph - N/A   Clear
10:35 AM 27.5 °F 17.4 °F 20.3 °F 74% 30.21 in 10.0 mi SSW 11.5 mph - N/A   Clear
10:55 AM 28.4 °F 19.7 °F 20.8 °F 73% 30.20 in 10.0 mi SSW 9.2 mph - N/A   Clear
11:15 AM 29.7 °F 21.3 °F 20.8 °F 70% 30.19 in 10.0 mi South 9.2 mph - N/A   Clear
11:35 AM 30.2 °F 21.3 °F 21.0 °F 69% 30.18 in 10.0 mi SSW 10.4 mph - N/A   Clear
11:55 AM 30.6 °F 23.8 °F 21.2 °F 68% 30.17 in 10.0 mi South 6.9 mph - N/A   Clear
12:15 PM 31.1 °F 21.9 °F 21.9 °F 69% 30.15 in 10.0 mi South 11.5 mph - N/A   Clear
12:55 PM 32.0 °F 24.2 °F 22.8 °F 69% 30.13 in 10.0 mi South 9.2 mph - N/A   Clear
1:55 PM 32.9 °F 25.3 °F 23.0 °F 67% 30.11 in 10.0 mi South 9.2 mph - N/A   Clear
2:15 PM 32.9 °F 25.3 °F 23.7 °F 69% 30.11 in 10.0 mi South 9.2 mph - N/A   Clear
2:55 PM 32.7 °F 24.5 °F 23.4 °F 68% 30.10 in 10.0 mi South 10.4 mph - N/A   Clear
3:15 PM 32.4 °F 26.0 °F 23.2 °F 69% 30.08 in 10.0 mi South 6.9 mph - N/A   Clear
3:35 PM 32.0 °F 25.6 °F 23.2 °F 70% 30.07 in 10.0 mi South 6.9 mph - N/A   Clear
3:55 PM 32.0 °F 23.6 °F 23.5 °F 71% 30.06 in 10.0 mi South 10.4 mph - N/A   Clear
5:35 PM 31.8 °F 23.3 °F 23.0 °F 70% 30.04 in 10.0 mi South 10.4 mph - N/A   Clear
5:55 PM 31.8 °F 23.3 °F 23.4 °F 71% 30.03 in 10.0 mi South 10.4 mph - N/A   Clear
6:15 PM 31.6 °F 22.6 °F 23.7 °F 73% 30.02 in 10.0 mi South 11.5 mph - N/A   Clear
6:35 PM 31.3 °F 21.6 °F 23.9 °F 74% 30.01 in 10.0 mi South 12.7 mph - N/A   Clear
6:55 PM 31.5 °F 22.9 °F 23.9 °F 74% 30.00 in 10.0 mi South 10.4 mph - N/A   Clear
7:15 PM 31.3 °F 22.7 °F 24.4 °F 76% 30.00 in 10.0 mi South 10.4 mph - N/A   Clear
7:55 PM 31.1 °F 21.4 °F 24.6 °F 77% 29.98 in 10.0 mi South 12.7 mph - N/A   Clear
8:15 PM 31.5 °F 22.9 °F 24.8 °F 76% 29.97 in 10.0 mi South 10.4 mph 17.3 mph N/A   Clear
8:55 PM 31.8 °F 22.8 °F 25.3 °F 77% 29.95 in 10.0 mi South 11.5 mph - N/A   Clear
9:15 PM 32.0 °F 23.0 °F 25.2 °F 76% 29.95 in 10.0 mi South 11.5 mph - N/A   Clear
9:35 PM 31.8 °F 22.3 °F 25.2 °F 76% 29.94 in 10.0 mi South 12.7 mph - N/A   Clear
9:55 PM 32.0 °F 23.0 °F 25.2 °F 76% 29.93 in 10.0 mi South 11.5 mph - N/A   Clear
10:15 PM 31.8 °F 22.3 °F 25.2 °F 76% 29.92 in 10.0 mi South 12.7 mph - N/A   Clear
10:35 PM 31.5 °F 21.8 °F 24.6 °F 76% 29.91 in 10.0 mi South 12.7 mph 18.4 mph N/A   Clear
10:55 PM 31.6 °F 23.1 °F 24.3 °F 74% 29.90 in 10.0 mi South 10.4 mph 18.4 mph N/A   Clear
11:35 PM 31.1 °F 22.4 °F 23.0 °F 72% 29.88 in 10.0 mi South 10.4 mph - N/A   Clear
11:55 PM 31.1 °F 22.4 °F 22.6 °F 71% 29.86 in 10.0 mi South 10.4 mph 16.1 mph N/A   Clear